Tracking 18630 objects as of 25-May-2017
HD Live streaming from Space Station
objects crossing your sky now

COSMOS 2251 DEB

Track COSMOS 2251 DEB now!
10-day predictions


NORAD ID: 35970
Int'l Code: 1993-036AVL
Perigee: 677.2 km
Apogee: 737.8 km
Inclination: 74.0 °
Period: 98.8 minutes
Semi major axis: 7078 km
RCS: 0.0106 m2 (small)
Launch date: June 16, 1993
Source: Commonwealth of Independent States (former USSR) (CIS)
Launch site: PLESETSK MISSILE AND SPACE COMPLEX (PKMTR)

Note: This is SATELLITE DEBRIS
Your satellite tracking list
Your tracking list is empty





NASA's NSSDC Master Catalog

Two Line Element Set (TLE):
1 35970U 93036AVL 17144.26438843 +.00000971 +00000-0 +21623-3 0  9994
2 35970 074.0422 105.8778 0042843 281.6621 077.9737 14.57779328410051
Source of the keplerian elements: AFSPC